TimeEDT,TemperatureF,Dew PointF,Humidity,Sea Level PressureIn,VisibilityMPH,Wind Direction,Wind SpeedMPH,Gust SpeedMPH,PrecipitationIn,Events,Conditions,WindDirDegrees,DateUTC
12:15 AM,37.4,35.6,93,30.27,10.0,Calm,Calm,-,N/A,,Mostly Cloudy,0,2014-03-14 04:15:00
12:35 AM,37.4,35.6,93,30.28,10.0,Calm,Calm,-,N/A,,Mostly Cloudy,0,2014-03-14 04:35:00
12:55 AM,37.4,35.6,93,30.28,10.0,Calm,Calm,-,N/A,,Mostly Cloudy,0,2014-03-14 04:55:00
1:15 AM,37.4,33.8,87,30.27,10.0,Calm,Calm,-,N/A,,Partly Cloudy,0,2014-03-14 05:15:00
1:35 AM,37.4,33.8,87,30.27,10.0,Calm,Calm,-,N/A,,Clear,0,2014-03-14 05:35:00
1:55 AM,35.6,33.8,93,30.27,10.0,Calm,Calm,-,N/A,,Clear,0,2014-03-14 05:55:00
2:15 AM,35.6,32.0,87,30.27,10.0,Calm,Calm,-,N/A,,Clear,0,2014-03-14 06:15:00
2:35 AM,35.6,33.8,93,30.27,10.0,Calm,Calm,-,N/A,,Partly Cloudy,0,2014-03-14 06:35:00
2:55 AM,35.6,32.0,87,30.27,10.0,Calm,Calm,-,N/A,,Clear,0,2014-03-14 06:55:00
3:15 AM,35.6,32.0,87,30.27,10.0,Calm,Calm,-,N/A,,Clear,0,2014-03-14 07:15:00
3:35 AM,33.8,32.0,93,30.26,6.0,North,6.9,-,N/A,,Clear,10,2014-03-14 07:35:00
3:55 AM,33.8,32.0,93,30.26,8.0,Calm,Calm,-,N/A,,Clear,0,2014-03-14 07:55:00
4:35 AM,33.8,32.0,93,30.26,8.0,Calm,Calm,-,N/A,,Clear,0,2014-03-14 08:35:00
4:55 AM,33.8,32.0,93,30.26,9.0,Calm,Calm,-,N/A,,Clear,0,2014-03-14 08:55:00
5:15 AM,32.0,32.0,100,30.27,8.0,Calm,Calm,-,N/A,,Clear,0,2014-03-14 09:15:00
5:35 AM,32.0,32.0,100,30.27,9.0,Calm,Calm,-,N/A,,Clear,0,2014-03-14 09:35:00
5:55 AM,32.0,32.0,100,30.28,9.0,Calm,Calm,-,N/A,,Clear,0,2014-03-14 09:55:00
6:15 AM,32.0,32.0,100,30.28,8.0,Calm,Calm,-,N/A,,Clear,0,2014-03-14 10:15:00
6:35 AM,32.0,32.0,100,30.29,9.0,Calm,Calm,-,N/A,,Clear,0,2014-03-14 10:35:00
6:55 AM,32.0,32.0,100,30.29,9.0,Calm,Calm,-,N/A,,Clear,0,2014-03-14 10:55:00
7:15 AM,32.0,32.0,100,30.30,9.0,Calm,Calm,-,N/A,,Clear,0,2014-03-14 11:15:00
7:35 AM,32.0,32.0,100,30.30,9.0,Calm,Calm,-,N/A,,Clear,0,2014-03-14 11:35:00
7:55 AM,32.0,32.0,100,30.30,8.0,Calm,Calm,-,N/A,,Clear,0,2014-03-14 11:55:00
8:15 AM,32.0,32.0,100,30.30,8.0,Calm,Calm,-,N/A,,Clear,0,2014-03-14 12:15:00
8:35 AM,35.6,32.0,87,30.30,6.0,East,5.8,-,N/A,,Clear,80,2014-03-14 12:35:00
8:55 AM,41.0,32.0,70,30.31,10.0,Calm,Calm,-,N/A,,Clear,0,2014-03-14 12:55:00
9:15 AM,44.6,32.0,61,30.32,10.0,Calm,Calm,-,N/A,,Clear,0,2014-03-14 13:15:00
9:35 AM,46.4,32.0,57,30.33,10.0,Calm,Calm,-,N/A,,Clear,0,2014-03-14 13:35:00
9:55 AM,48.2,32.0,54,30.33,10.0,ESE,5.8,-,N/A,,Clear,120,2014-03-14 13:55:00
10:15 AM,51.8,32.0,47,30.33,10.0,East,3.5,-,N/A,,Clear,90,2014-03-14 14:15:00
10:35 AM,55.4,30.2,38,30.34,10.0,ESE,6.9,-,N/A,,Clear,120,2014-03-14 14:35:00
10:55 AM,57.2,26.6,31,30.35,10.0,SE,4.6,-,N/A,,Clear,130,2014-03-14 14:55:00
11:15 AM,57.2,26.6,31,30.36,10.0,SSE,10.4,-,N/A,,Clear,150,2014-03-14 15:15:00
11:35 AM,59.0,26.6,29,30.35,10.0,SSE,9.2,-,N/A,,Clear,160,2014-03-14 15:35:00
11:55 AM,60.8,26.6,27,30.34,10.0,SE,9.2,-,N/A,,Clear,140,2014-03-14 15:55:00
12:15 PM,62.6,26.6,26,30.35,10.0,SE,4.6,-,N/A,,Clear,140,2014-03-14 16:15:00
12:35 PM,62.6,26.6,26,30.34,10.0,SSE,4.6,-,N/A,,Clear,160,2014-03-14 16:35:00
12:55 PM,62.6,26.6,26,30.33,10.0,SSE,9.2,-,N/A,,Clear,160,2014-03-14 16:55:00
1:15 PM,62.6,24.8,24,30.32,10.0,East,5.8,-,N/A,,Clear,100,2014-03-14 17:15:00
1:35 PM,64.4,28.4,26,30.31,10.0,SE,10.4,-,N/A,,Clear,140,2014-03-14 17:35:00
1:55 PM,64.4,26.6,24,30.29,10.0,Calm,Calm,-,N/A,,Clear,0,2014-03-14 17:55:00
2:15 PM,66.2,28.4,24,30.28,10.0,South,8.1,-,N/A,,Clear,180,2014-03-14 18:15:00
2:35 PM,66.2,28.4,24,30.26,10.0,SSE,6.9,-,N/A,,Clear,150,2014-03-14 18:35:00
2:55 PM,68.0,28.4,23,30.24,10.0,Calm,Calm,-,N/A,,Clear,0,2014-03-14 18:55:00
3:15 PM,68.0,30.2,24,30.24,10.0,SE,9.2,-,N/A,,Clear,130,2014-03-14 19:15:00
3:35 PM,68.0,28.4,23,30.23,10.0,SSW,8.1,16.1,N/A,,Clear,210,2014-03-14 19:35:00
3:55 PM,68.0,28.4,23,30.22,10.0,SSW,6.9,-,N/A,,Clear,210,2014-03-14 19:55:00
4:15 PM,68.0,28.4,23,30.21,10.0,SSE,10.4,-,N/A,,Clear,160,2014-03-14 20:15:00
4:35 PM,68.0,30.2,24,30.21,10.0,South,11.5,-,N/A,,Clear,170,2014-03-14 20:35:00
4:55 PM,68.0,28.4,23,30.21,10.0,SSE,11.5,-,N/A,,Clear,150,2014-03-14 20:55:00
5:15 PM,68.0,28.4,23,30.21,10.0,South,9.2,-,N/A,,Clear,180,2014-03-14 21:15:00
5:35 PM,66.2,28.4,24,30.21,10.0,South,8.1,-,N/A,,Clear,170,2014-03-14 21:35:00
5:55 PM,66.2,28.4,24,30.20,10.0,South,10.4,-,N/A,,Clear,170,2014-03-14 21:55:00
6:15 PM,66.2,28.4,24,30.21,10.0,SSE,10.4,-,N/A,,Clear,160,2014-03-14 22:15:00
6:35 PM,64.4,28.4,26,30.21,10.0,South,6.9,-,N/A,,Clear,170,2014-03-14 22:35:00
6:55 PM,64.4,30.2,28,30.21,10.0,SSE,10.4,-,N/A,,Clear,160,2014-03-14 22:55:00
7:15 PM,62.6,28.4,27,30.21,10.0,SSE,8.1,-,N/A,,Scattered Clouds,150,2014-03-14 23:15:00
7:35 PM,59.0,28.4,31,30.21,10.0,SSE,5.8,-,N/A,,Mostly Cloudy,150,2014-03-14 23:35:00
7:55 PM,57.2,30.2,36,30.21,10.0,Calm,Calm,-,N/A,,Overcast,0,2014-03-14 23:55:00
8:15 PM,55.4,28.4,36,30.21,10.0,Calm,Calm,-,N/A,,Overcast,0,2014-03-15 00:15:00
8:35 PM,53.6,32.0,44,30.21,10.0,Calm,Calm,-,N/A,,Overcast,0,2014-03-15 00:35:00
8:55 PM,51.8,32.0,47,30.21,10.0,Calm,Calm,-,N/A,,Overcast,0,2014-03-15 00:55:00
9:15 PM,50.0,33.8,54,30.21,10.0,Calm,Calm,-,N/A,,Overcast,0,2014-03-15 01:15:00
9:35 PM,48.2,35.6,62,30.22,10.0,Calm,Calm,-,N/A,,Mostly Cloudy,0,2014-03-15 01:35:00
9:55 PM,48.2,35.6,62,30.23,10.0,Calm,Calm,-,N/A,,Overcast,0,2014-03-15 01:55:00
10:15 PM,46.4,35.6,66,30.23,10.0,Calm,Calm,-,N/A,,Mostly Cloudy,0,2014-03-15 02:15:00
10:35 PM,46.4,35.6,66,30.22,10.0,Calm,Calm,-,N/A,,Overcast,0,2014-03-15 02:35:00
10:55 PM,44.6,35.6,71,30.22,10.0,Calm,Calm,-,N/A,,Mostly Cloudy,0,2014-03-15 02:55:00
11:15 PM,44.6,35.6,71,30.22,10.0,Calm,Calm,-,N/A,,Mostly Cloudy,0,2014-03-15 03:15:00
11:35 PM,44.6,35.6,71,30.22,10.0,Calm,Calm,-,N/A,,Overcast,0,2014-03-15 03:35:00
11:55 PM,44.6,37.4,76,30.21,10.0,Calm,Calm,-,N/A,,Scattered Clouds,0,2014-03-15 03:55:00